Weather History for KJRB - December, 2013

Change the Weather History Date:

Wednesday, December 18, 2013

  Actual Average (KNYC) Record (KNYC)
Temperature  
Mean Temperature 34 °F 37 °F  
Max Temperature 42 °F 42 °F 63 °F (1984)
Min Temperature 26 °F 31 °F -1 °F (1919)
Degree Days  
Heating Degree Days 31 28  
Month to date heating degree days 459  
Since 1 July heating degree days 1292  
Cooling Degree Days 0 0  
Month to date cooling degree days 0  
Year to date cooling degree days 1105  
Moisture  
Dew Point 25 °F    
Average Humidity 73    
Maximum Humidity 93    
Minimum Humidity 45    
Precipitation  
Precipitation 0.38 in 0.12 in 1.30 in (1876)
Month to date precipitation 2.42  
Year to date precipitation 48.36  
Snow  
Snow 0.00 in 0.20 in 4.50 in (1887)
Month to date snowfall 2.2  
Since 1 July snowfall 2.5  
Snow Depth -    
Sea Level Pressure  
Sea Level Pressure 30.06 in    
Wind  
Wind Speed 6 mph (West)    
Max Wind Speed 14 mph    
Max Gust Speed 46 mph    
Visibility 10 miles    
Events      
T = Trace of Precipitation, MM = Missing Value Source: NWS Daily Summary

Daily Weather History Graph

Daily Weather History Graph

Search for Another Location

Airport or City:

Trip Planner

Search our weather history database for the weather conditions in past years. The results will help you decide how hot, cold, wet, or windy it might be!

Date:

Astronomy

Dec. 18, 2013 Rise Set
Actual Time 7:14 AM EST 4:30 PM EST
Civil Twilight 6:44 AM EST 5:01 PM EST
Nautical Twilight 6:09 AM EST 5:36 PM EST
Astronomical Twilight 5:36 AM EST 6:09 PM EST
Moon 6:00 PM EST (12/18) 7:52 AM EST (12/18)
Length of Visible Light 10h 17m
Length of Day
9h 15m
Full, 98% of the Moon is Illuminated
Dec 18
Full
Dec 25
Last Quarter
Jan 1
New
Jan 7
First Quarter
Jan 15
Full

Hourly Weather History & Observations

Time (EST) Temp. Windchill Dew Point Humidity Pressure Visibility Wind Dir Wind Speed Gust Speed Precip Events Conditions
12:15 AM 28.4 °F 23.3 °F 26.6 °F 93% 29.94 in 10.0 mi NE 4.6 mph - N/A   Overcast
12:35 AM 26.6 °F 22.6 °F 24.8 °F 93% 29.95 in 10.0 mi SW 3.5 mph - N/A   Overcast
12:55 AM 26.6 °F 22.6 °F 24.8 °F 93% 29.94 in 10.0 mi ESE 3.5 mph - N/A   Overcast
1:15 AM 26.6 °F 22.6 °F 24.8 °F 93% 29.94 in 10.0 mi ENE 3.5 mph - N/A   Overcast
1:35 AM 26.6 °F 21.2 °F 24.8 °F 93% 29.93 in 10.0 mi East 4.6 mph - N/A   Overcast
1:55 AM 26.6 °F 21.2 °F 24.8 °F 93% 29.94 in 10.0 mi West 4.6 mph - N/A   Overcast
2:15 AM 26.6 °F 22.6 °F 23.0 °F 86% 29.96 in 10.0 mi ESE 3.5 mph - N/A   Overcast
2:35 AM 26.6 °F 22.6 °F 24.8 °F 93% 29.97 in 10.0 mi ENE 3.5 mph - N/A   Overcast
2:55 AM 26.6 °F 22.6 °F 23.0 °F 86% 29.97 in 10.0 mi West 3.5 mph - N/A   Overcast
3:15 AM 26.6 °F 20.0 °F 23.0 °F 86% 29.97 in 10.0 mi West 5.8 mph - N/A   Overcast
3:35 AM 26.6 °F 20.0 °F 23.0 °F 86% 29.97 in 10.0 mi West 5.8 mph - N/A   Overcast
3:55 AM 26.6 °F 21.2 °F 23.0 °F 86% 29.97 in 10.0 mi WNW 4.6 mph - N/A   Scattered Clouds
4:15 AM 26.6 °F 20.0 °F 23.0 °F 86% 29.97 in 10.0 mi West 5.8 mph - N/A   Partly Cloudy
4:35 AM 26.6 °F 20.0 °F 24.8 °F 93% 29.97 in 10.0 mi West 5.8 mph - N/A   Mostly Cloudy
4:55 AM 26.6 °F 22.6 °F 24.8 °F 93% 29.97 in 10.0 mi WNW 3.5 mph - N/A   Overcast
5:15 AM 26.6 °F - 24.8 °F 93% 29.98 in 10.0 mi Calm Calm - N/A   Mostly Cloudy
5:35 AM 26.6 °F 22.6 °F 24.8 °F 93% 29.99 in 10.0 mi West 3.5 mph - N/A   Scattered Clouds
5:55 AM 26.6 °F - 24.8 °F 93% 29.99 in 10.0 mi Calm Calm - N/A   Partly Cloudy
6:15 AM 26.6 °F 20.0 °F 24.8 °F 93% 30.00 in 10.0 mi West 5.8 mph - N/A   Clear
6:35 AM 28.4 °F 21.2 °F 24.8 °F 86% 30.02 in 10.0 mi West 6.9 mph - N/A   Clear
6:55 AM 26.6 °F 21.2 °F 24.8 °F 93% 30.02 in 10.0 mi West 4.6 mph - N/A   Clear
7:15 AM 26.6 °F 18.2 °F 24.8 °F 93% 30.02 in 10.0 mi West 8.1 mph - N/A   Clear
7:35 AM 26.6 °F 19.1 °F 24.8 °F 93% 30.03 in 10.0 mi WSW 6.9 mph - 0.09 in   Clear
7:55 AM 28.4 °F 21.2 °F 24.8 °F 86% 30.04 in 10.0 mi West 6.9 mph - 0.09 in   Clear
8:15 AM 28.4 °F 20.4 °F 24.8 °F 86% 30.05 in 10.0 mi West 8.1 mph - N/A   Clear
8:35 AM 30.2 °F 23.4 °F 26.6 °F 86% 30.05 in 10.0 mi West 6.9 mph - N/A   Clear
8:55 AM 30.2 °F 21.9 °F 26.6 °F 86% 30.06 in 10.0 mi WSW 9.2 mph - N/A   Clear
9:15 AM 30.2 °F 22.6 °F 26.6 °F 86% 30.06 in 10.0 mi WSW 8.1 mph - N/A   Clear
9:35 AM 32.0 °F 24.8 °F 26.6 °F 80% 30.07 in 10.0 mi West 8.1 mph - N/A   Clear
9:55 AM 30.2 °F 21.9 °F 26.6 °F 86% 30.07 in 10.0 mi West 9.2 mph - N/A   Clear
10:15 AM 32.0 °F 23.0 °F 26.6 °F 80% 30.07 in 10.0 mi West 11.5 mph - N/A   Clear
10:35 AM 33.8 °F 28.6 °F 26.6 °F 75% 30.06 in 10.0 mi West 5.8 mph - N/A   Clear
10:55 AM 35.6 °F 31.7 °F 26.6 °F 70% 30.06 in 10.0 mi West 4.6 mph - N/A   Clear
11:15 AM 35.6 °F 28.6 °F 26.6 °F 70% 30.05 in 10.0 mi West 9.2 mph - N/A   Clear
11:35 AM 37.4 °F 32.8 °F 26.6 °F 65% 30.05 in 10.0 mi West 5.8 mph - N/A   Clear
11:55 AM 37.4 °F 32.1 °F 26.6 °F 65% 30.05 in 10.0 mi West 6.9 mph - N/A   Clear
12:15 PM 39.2 °F 37.0 °F 26.6 °F 61% 30.04 in 10.0 mi NW 3.5 mph - N/A   Clear
12:35 PM 39.2 °F 35.0 °F 26.6 °F 61% 30.04 in 10.0 mi West 5.8 mph - N/A   Clear
12:55 PM 41.0 °F 38.0 °F 26.6 °F 57% 30.04 in 10.0 mi WNW 4.6 mph - N/A   Partly Cloudy
1:15 PM 41.0 °F 39.0 °F 26.6 °F 57% 30.04 in 10.0 mi West 3.5 mph - N/A   Partly Cloudy
1:35 PM 41.0 °F 38.0 °F 26.6 °F 57% 30.04 in 10.0 mi WNW 4.6 mph - N/A   Clear
1:55 PM 39.2 °F 37.0 °F 24.8 °F 56% 30.05 in 10.0 mi West 3.5 mph - N/A   Mostly Cloudy
2:15 PM 41.0 °F 37.1 °F 21.2 °F 45% 30.05 in 10.0 mi West 5.8 mph - N/A   Overcast
2:35 PM 41.0 °F 38.0 °F 23.0 °F 49% 30.06 in 10.0 mi WNW 4.6 mph - N/A   Mostly Cloudy
2:55 PM 42.8 °F 37.5 °F 24.8 °F 49% 30.06 in 10.0 mi West 9.2 mph - N/A   Partly Cloudy
3:15 PM 41.0 °F 34.3 °F 21.2 °F 45% 30.07 in 10.0 mi West 11.5 mph 20.7 mph N/A   Mostly Cloudy
3:35 PM 39.2 °F 31.6 °F 23.0 °F 52% 30.08 in 10.0 mi West 12.7 mph 21.9 mph N/A   Overcast
3:55 PM 39.2 °F 32.0 °F 21.2 °F 49% 30.09 in 10.0 mi West 11.5 mph 20.7 mph N/A   Overcast
4:15 PM 37.4 °F 28.9 °F 21.2 °F 52% 30.11 in 10.0 mi West 13.8 mph 19.6 mph N/A   Mostly Cloudy
4:35 PM 37.4 °F 29.3 °F 23.0 °F 56% 30.11 in 10.0 mi West 12.7 mph 28.8 mph N/A   Partly Cloudy
4:55 PM 35.6 °F 27.5 °F 23.0 °F 60% 30.11 in 10.0 mi West 11.5 mph 18.4 mph N/A   Clear
5:15 PM 35.6 °F 26.6 °F 23.0 °F 60% 30.12 in 10.0 mi West 13.8 mph 40.3 mph 0.06 in   Clear
5:35 PM 35.6 °F 27.5 °F 21.2 °F 56% 30.12 in 10.0 mi West 11.5 mph 19.6 mph 0.06 in   Clear
5:55 PM 35.6 °F 26.6 °F 23.0 °F 60% 30.13 in 10.0 mi West 13.8 mph 19.6 mph 0.06 in   Clear
6:15 PM 35.6 °F 27.1 °F 24.8 °F 65% 30.14 in 10.0 mi West 12.7 mph 17.3 mph N/A   Clear
6:35 PM 35.6 °F 27.5 °F 24.8 °F 65% 30.15 in 10.0 mi West 11.5 mph - N/A   Clear
6:55 PM 35.6 °F 28.6 °F 24.8 °F 65% 30.15 in 10.0 mi West 9.2 mph - N/A   Clear
7:15 PM 35.6 °F 27.1 °F 24.8 °F 65% 30.16 in 10.0 mi West 12.7 mph - N/A   Clear
7:35 PM 35.6 °F 28.0 °F 24.8 °F 65% 30.16 in 10.0 mi West 10.4 mph - N/A   Clear
7:55 PM 35.6 °F 28.0 °F 24.8 °F 65% 30.17 in 10.0 mi West 10.4 mph 16.1 mph 0.07 in   Clear
8:15 PM 35.6 °F 27.5 °F 24.8 °F 65% 30.18 in 10.0 mi West 11.5 mph - N/A   Clear
8:35 PM 35.6 °F 27.5 °F 24.8 °F 65% 30.18 in 10.0 mi West 11.5 mph 46.0 mph 0.09 in   Clear
8:55 PM 35.6 °F 27.5 °F 24.8 °F 65% 30.18 in 10.0 mi West 11.5 mph - 0.16 in   Clear
9:15 PM 35.6 °F 27.5 °F 24.8 °F 65% 30.17 in 10.0 mi West 11.5 mph - N/A   Clear
9:35 PM 33.8 °F 25.8 °F 24.8 °F 70% 30.18 in 10.0 mi West 10.4 mph - N/A   Clear
9:55 PM 33.8 °F 25.8 °F 24.8 °F 70% 30.18 in 10.0 mi West 10.4 mph - N/A   Clear
10:15 PM 33.8 °F 25.8 °F 24.8 °F 70% 30.18 in 10.0 mi West 10.4 mph - N/A   Clear
10:35 PM 33.8 °F 26.4 °F 24.8 °F 70% 30.18 in 10.0 mi West 9.2 mph - N/A   Clear
10:55 PM 33.8 °F 26.4 °F 23.0 °F 65% 30.18 in 10.0 mi West 9.2 mph - N/A   Clear
11:15 PM 33.8 °F 27.0 °F 23.0 °F 65% 30.18 in 10.0 mi West 8.1 mph - N/A   Clear
11:35 PM 33.8 °F 27.0 °F 23.0 °F 65% 30.18 in 10.0 mi West 8.1 mph - N/A   Clear
11:55 PM 33.8 °F 27.0 °F 23.0 °F 65% 30.18 in 10.0 mi West 8.1 mph - N/A   Clear